Theta_e
315 315 315 316 316 316 316 316 316 315 314 314 314 314 312 313 314 307 298 303 307 311 309 302 297 296 295 292 292 289 281 279 282 282 283 286 285 288 290 288 288 291 288 290 292
315 315 315 315 315 316 316 316 316 316 314 314 313 313 313 314 305 300 306 308 308 308 300 296 294 295 291 291 290 286 281 283 284 283 282 285 285 285 285 285 285 287 290 291 291
315 315 315 315 315 316 315 315 315 316 315 313 313 313 313 311 300 296 307 307 306 306 301 298 297 295 290 290 289 287 283 285 286 288 287 286 285 286 283 283 286 285 287 288 288
315 316 316 316 316 316 315 315 315 315 315 314 312 313 314 304 288 299 305 305 307 304 299 297 294 290 288 286 290 282 288 287 289 289 287 284 286 285 286 285 289 288 287 287 286
316 316 316 316 317 316 315 315 315 315 314 314 312 313 306 294 294 303 307 304 302 300 296 294 292 290 286 287 287 284 286 289 289 288 286 288 285 285 285 288 288 289 289 286 286
316 316 316 316 317 317 315 315 314 313 312 313 311 312 299 290 299 301 301 301 300 298 295 295 292 292 288 287 285 288 288 287 288 288 288 286 284 285 284 286 286 287 285 286 285
317 316 316 316 316 316 315 314 311 312 311 312 311 308 297 294 298 300 300 299 300 299 295 296 295 292 290 287 290 288 283 286 287 288 285 285 282 281 285 286 285 284 285 286 286
317 316 316 316 316 316 314 311 309 311 312 310 310 302 289 299 296 299 300 297 299 300 298 298 298 293 290 290 288 283 282 278 286 286 286 285 277 283 284 284 283 284 282 284 285
317 317 317 317 316 316 312 309 309 310 309 310 301 296 289 302 295 298 298 296 297 298 298 298 296 290 289 283 280 280 277 278 281 286 284 282 278 284 285 284 282 282 282 283 283
318 317 317 317 316 315 312 308 308 307 305 304 299 288 292 291 295 297 297 298 295 294 294 292 289 283 282 280 272 277 276 278 277 283 283 281 280 282 285 284 282 281 282 281 280
317 318 317 317 316 314 305 299 292 292 294 290 290 289 291 293 296 294 297 295 294 291 284 289 282 280 282 283 283 280 277 276 280 285 280 279 279 282 284 284 283 281 281 279 278
314 315 317 317 316 312 301 293 292 291 286 293 292 291 293 293 289 292 296 289 288 283 286 283 280 285 287 286 283 280 277 276 280 283 280 278 278 282 282 282 282 281 278 278 276
312 313 314 317 315 302 294 294 300 298 287 290 290 290 290 291 288 289 292 290 286 284 284 281 285 288 285 282 281 279 278 277 277 279 279 277 274 275 280 281 281 280 280 278 276
311 312 314 314 306 298 292 299 301 301 282 286 286 289 291 291 285 292 292 289 287 283 284 284 287 285 282 281 281 276 281 279 278 272 269 276 266 274 277 278 279 279 278 276 275
311 312 312 308 302 297 298 302 302 297 274 286 285 293 291 286 287 287 292 288 283 285 284 282 283 281 280 282 283 277 281 278 277 270 269 272 263 271 276 275 277 278 277 275 275
309 311 310 305 300 297 300 300 296 283 276 281 285 285 284 286 287 288 288 289 289 284 285 284 286 284 283 284 283 282 279 279 275 273 266 269 269 272 271 272 276 277 276 275 275
309 306 303 300 295 299 299 295 286 283 288 281 280 285 283 282 284 286 284 283 280 282 281 282 281 283 284 280 281 277 273 264 264 268 265 274 270 274 274 275 273 271 273 272 274
308 304 300 299 300 299 298 289 279 279 286 286 283 282 281 282 282 284 283 281 284 283 279 278 277 279 283 280 277 276 272 266 260 261 265 275 265 274 273 270 268 269 268 274 273
307 301 299 298 299 299 296 278 276 285 286 284 286 281 281 281 282 283 281 281 283 283 277 276 277 281 281 281 279 277 272 275 264 262 267 267 273 278 275 271 269 267 274 272 271
303 297 294 298 297 298 288 281 285 284 286 285 282 285 281 280 280 280 281 283 282 284 284 280 271 280 279 281 280 277 278 269 267 259 258 266 268 271 269 269 269 268 270 269 271
301 293 295 297 298 293 284 283 285 286 287 284 282 282 281 281 281 281 282 283 284 283 283 280 276 277 278 271 272 272 271 273 272 268 261 262 267 270 269 266 268 268 272 267 268
299 286 294 298 287 285 285 286 287 284 285 285 282 281 280 282 281 281 282 282 285 284 280 281 278 276 275 273 277 276 269 270 266 264 262 264 268 265 266 264 265 270 273 268 271
291 290 294 295 279 284 285 284 284 283 283 283 282 284 281 279 278 281 282 284 285 283 281 282 279 273 275 275 276 269 273 272 269 267 262 263 268 265 263 266 269 267 264 268 271
291 284 287 289 288 285 284 284 283 286 284 286 284 284 280 277 281 278 280 283 284 284 285 284 279 275 273 272 269 266 268 273 272 260 261 267 268 274 267 265 264 265 264 262 263
293 285 284 283 284 285 284 284 283 282 284 285 281 280 279 275 277 275 281 282 283 285 283 280 275 272 273 272 264 265 265 270 269 265 268 264 263 274 276 267 263 261 260 262 261
289 287 286 285 286 284 284 283 283 285 285 282 281 283 283 277 280 278 279 280 280 282 281 280 275 273 270 265 262 264 266 269 272 263 269 272 272 269 262 258 261 261 259 259 259
295 294 291 286 284 283 283 284 284 286 287 289 285 283 279 281 282 283 283 281 280 280 280 278 276 272 267 267 267 266 264 265 263 262 267 265 270 261 265 262 262 261 261 261 260
Wind_Speed
10 10 11 12 12 12 12 12 11 10 9 8 7 6 6 10 14 1 3 4 6 11 10 6 5 3 4 1 2 3 4 3 2 3 3 2 2 2 1 5 2 5 3 6 2
9 10 11 11 12 12 11 12 10 10 9 8 7 7 8 10 3 2 2 4 5 7 6 7 3 3 1 2 1 4 3 3 1 1 2 2 3 4 2 3 3 4 7 6 6
9 10 11 12 11 12 12 12 10 9 8 6 7 6 7 6 3 2 4 3 4 5 3 3 4 1 1 2 1 2 5 1 2 3 3 3 6 3 2 5 6 5 2 4 4
10 11 11 12 13 13 13 13 11 9 8 6 6 6 6 1 2 1 2 2 5 6 4 2 2 1 2 2 2 1 5 2 0 3 2 2 4 5 7 8 6 8 5 3 4
10 10 11 13 13 14 14 13 11 10 8 6 4 4 3 1 3 3 1 4 4 3 3 3 4 3 1 2 1 3 3 4 3 4 4 4 7 5 10 10 8 7 4 2 1
9 10 11 13 14 15 15 15 12 10 5 4 3 2 0 3 5 3 1 3 5 4 5 5 2 3 3 0 3 2 5 8 7 4 4 4 5 2 3 6 7 5 1 2 1
8 9 11 13 14 16 17 15 13 7 1 4 2 1 2 5 5 2 1 2 3 3 3 3 3 2 2 2 3 2 6 7 7 5 3 3 8 9 8 6 7 5 6 5 4
8 8 10 12 14 16 16 14 8 3 2 3 1 1 4 2 3 4 1 2 1 3 3 1 2 1 0 2 3 2 1 4 2 8 2 5 10 4 7 9 9 9 8 7 5
8 9 10 12 14 15 14 11 4 1 1 3 1 3 5 0 1 2 3 2 3 1 0 1 1 2 2 2 4 2 4 4 3 8 5 6 8 6 9 9 9 9 8 7 6
8 8 10 12 14 17 15 3 2 1 3 3 3 2 1 1 2 2 1 1 0 1 0 0 1 2 2 3 5 3 4 4 5 3 5 10 20 6 8 11 11 10 9 7 5
11 9 9 11 14 17 8 2 5 2 1 6 2 1 3 1 1 1 2 1 1 1 3 3 2 6 7 8 2 3 2 6 7 7 5 10 14 16 9 8 9 8 8 6 3
14 14 11 10 12 15 3 5 2 2 8 4 2 2 2 1 1 1 1 1 2 3 4 2 6 3 4 3 2 2 3 7 7 3 4 9 22 21 9 7 5 8 7 5 1
14 14 13 10 12 4 6 2 2 0 1 2 2 2 1 1 1 2 1 1 3 3 5 6 1 5 2 2 3 4 5 4 5 7 3 10 9 5 2 4 4 4 6 4 2
16 15 14 10 2 0 3 0 1 1 4 2 1 2 1 1 1 1 1 1 2 3 2 5 2 3 4 4 5 3 2 1 3 6 3 6 9 6 3 5 5 7 6 3 6
16 16 3 5 2 2 2 4 1 1 5 1 1 2 2 0 1 0 2 1 4 2 3 3 3 3 4 4 5 7 4 3 1 3 5 3 4 10 3 6 8 8 5 6 6
16 9 5 2 3 1 4 4 2 5 8 1 3 2 1 4 1 1 1 1 2 3 3 5 1 1 3 1 2 2 4 3 3 3 2 6 5 8 5 7 2 4 4 5 6
6 6 3 2 1 4 3 2 2 4 4 4 2 1 3 3 3 1 0 2 3 0 1 1 3 2 2 1 1 6 5 5 7 2 7 3 2 14 7 7 5 2 6 6 6
8 3 5 2 3 4 1 4 2 4 2 2 3 2 3 2 1 1 0 3 4 1 2 4 4 3 1 2 5 2 6 7 6 3 6 2 8 9 5 1 2 3 5 4 3
2 1 2 4 4 2 2 2 8 2 1 5 7 2 3 2 2 2 3 4 3 9 5 0 3 2 3 1 2 2 1 2 5 2 1 5 9 6 2 5 5 5 3 5 3
0 1 2 4 4 1 3 5 3 1 2 2 2 0 2 0 1 1 3 3 2 4 2 2 4 2 2 2 3 1 4 3 4 3 6 7 7 8 5 7 5 7 6 5 4
1 0 1 3 3 2 3 4 1 2 1 2 2 3 2 3 2 1 3 5 5 5 3 3 2 1 2 4 8 1 1 1 3 5 6 5 10 6 6 6 7 7 6 6 4
1 1 2 3 2 0 2 2 2 3 1 1 1 1 1 2 3 3 2 1 9 5 3 1 2 4 4 3 3 1 6 5 6 6 3 4 13 3 6 5 5 7 3 3 1
1 2 2 2 2 3 1 2 1 2 2 4 3 4 1 2 4 2 1 3 1 1 2 1 2 4 1 1 3 1 3 3 5 4 7 6 11 3 4 6 6 6 5 3 2
2 1 2 2 1 1 3 2 2 1 0 1 1 0 1 2 4 3 2 1 3 2 3 0 2 5 5 5 4 2 3 5 6 4 4 10 10 13 6 5 5 4 1 4 3
2 3 3 2 3 4 2 1 1 2 2 3 2 4 3 3 2 4 3 2 2 3 2 1 3 2 6 8 5 6 7 9 11 7 7 6 6 14 15 5 5 3 2 2 3
3 3 1 2 1 4 3 3 2 1 3 2 3 2 6 5 4 3 1 3 0 3 2 1 2 2 7 1 3 6 9 10 10 3 13 15 23 5 4 2 4 5 4 3 3
0 1 2 4 3 3 3 4 5 1 3 1 3 1 4 5 2 3 3 3 4 1 1 1 1 3 7 2 3 8 10 13 6 4 8 7 12 2 4 5 5 4 6 6 6
Wind_Direction
18 13 13 8 5 358 2 359 359 354 350 355 345 328 314 330 322 199 64 310 318 322 320 273 294 258 330 53 3 49 61 255 292 31 186 208 113 208 164 154 161 195 82 139 118
14 11 8 7 358 355 357 355 354 346 343 343 342 328 323 330 307 70 327 334 330 329 348 12 34 340 344 124 344 97 131 227 181 56 61 343 71 336 351 255 243 272 118 81 53
9 8 1 359 355 350 347 351 345 337 331 333 333 326 328 334 316 131 347 351 337 320 287 300 298 336 249 61 147 323 198 184 41 108 64 338 331 348 313 273 217 182 273 15 76
2 3 359 353 348 346 344 340 337 329 322 317 318 320 330 304 319 124 354 343 308 300 315 301 293 325 181 176 110 331 272 161 201 95 58 302 316 311 235 241 160 150 145 105 47
355 354 353 348 344 341 337 334 329 321 306 295 299 319 352 271 241 178 231 336 294 292 39 23 5 348 2 78 78 188 311 337 319 280 232 238 244 240 257 262 157 143 115 106 107
349 346 349 344 342 339 334 330 328 321 294 245 253 325 269 261 134 94 163 342 3 11 48 45 35 324 288 229 157 277 299 284 270 226 241 246 264 106 240 134 143 150 208 290 76
336 336 340 339 338 336 335 330 325 321 246 200 212 228 286 243 118 97 100 103 1 30 106 58 8 31 346 280 326 311 313 304 224 204 220 78 287 228 243 183 175 193 217 240 152
324 329 327 328 330 333 334 331 326 331 161 169 206 276 242 51 208 65 172 142 64 35 81 93 1 313 216 284 307 298 232 330 262 139 166 102 276 227 182 159 200 215 226 209 180
317 323 323 323 325 329 329 329 319 292 207 179 133 162 275 37 156 124 34 95 123 186 101 253 21 103 51 88 354 292 258 241 313 196 143 195 261 203 204 197 216 219 212 210 187
309 319 322 323 328 329 328 270 303 85 262 220 278 18 208 138 133 100 343 2 255 188 206 215 69 68 16 107 229 201 268 295 267 261 214 244 255 251 225 220 223 218 207 206 167
349 328 320 322 331 331 352 7 15 355 5 209 196 267 114 97 0 115 32 301 254 191 204 226 89 216 215 214 171 138 215 247 277 280 283 247 274 274 245 255 242 192 192 171 155
357 352 321 317 331 329 21 60 80 212 311 352 109 101 86 200 228 135 8 163 192 244 167 62 234 214 128 125 155 156 275 275 281 62 344 291 290 288 283 256 201 175 163 174 182
348 342 338 311 323 23 95 86 314 172 263 347 45 46 81 147 310 117 283 193 248 246 206 190 141 137 153 225 264 229 208 245 246 338 287 319 305 319 332 87 98 155 176 161 88
341 333 328 311 346 272 55 244 203 67 46 261 73 10 8 327 250 337 16 133 264 266 257 241 152 179 208 238 152 292 65 19 335 39 288 71 283 293 212 232 235 234 221 93 36
336 328 345 19 274 74 308 342 16 81 350 328 117 265 18 117 104 197 333 108 211 223 99 253 178 194 205 221 142 226 12 297 195 124 36 336 63 272 178 258 246 243 170 58 17
326 332 323 356 62 325 325 340 72 37 257 25 152 186 102 163 226 135 249 273 53 302 223 247 59 205 219 49 165 15 20 51 71 94 336 233 134 275 207 213 210 113 63 13 323
291 52 60 22 191 316 353 44 39 218 344 294 290 333 347 224 176 121 90 264 233 345 300 278 196 85 84 107 15 60 59 334 355 328 225 194 215 253 245 223 198 251 303 289 312
111 61 45 65 325 335 268 44 170 251 285 313 339 264 244 14 47 105 325 295 225 29 285 204 287 161 20 181 168 162 146 152 245 265 276 239 239 255 231 255 240 221 248 296 4
355 44 45 344 353 314 94 97 206 249 189 347 306 51 303 77 339 12 242 221 145 201 191 292 269 103 63 37 87 246 85 153 91 96 334 241 280 292 311 299 300 295 332 323 323
342 103 43 319 4 17 95 234 194 80 121 123 265 140 314 186 8 205 267 328 70 17 108 299 324 154 128 55 16 112 166 60 9 1 302 287 282 244 286 276 280 292 303 279 274
190 11 320 358 41 56 223 224 164 105 97 161 262 297 272 308 232 241 275 27 11 303 339 135 132 161 79 190 174 74 87 50 118 136 181 296 269 222 208 211 245 278 277 240 265
262 218 295 28 75 243 204 216 164 145 113 115 244 210 253 304 250 238 276 134 351 333 312 190 210 256 238 242 241 164 179 150 124 261 232 154 272 218 212 211 216 275 268 259 210
132 105 339 61 160 215 136 284 215 130 169 177 224 207 128 271 294 250 348 185 320 306 274 270 230 310 266 54 8 182 222 150 118 73 217 145 261 307 304 304 277 258 262 298 336
119 203 344 42 49 256 193 218 157 116 228 227 255 132 168 251 234 291 313 50 355 281 279 237 276 224 223 206 131 199 216 194 138 129 214 232 288 293 301 281 297 282 266 285 294
199 230 183 166 196 197 153 107 197 180 209 217 215 204 182 288 204 230 227 256 183 292 249 272 252 253 267 252 190 216 190 193 201 200 190 260 240 286 296 285 247 235 250 295 329
150 170 324 101 73 183 184 197 240 155 166 215 218 168 204 221 223 263 181 226 280 186 268 71 292 343 281 19 164 260 219 205 216 262 275 280 286 264 295 309 288 251 212 228 250
149 0 137 154 170 161 205 192 184 195 210 261 219 250 228 242 306 285 256 323 296 324 209 214 323 8 270 330 305 307 219 181 192 219 161 185 226 292 292 278 252 232 199 192 205